Year,Month,Day,Hour,Minute,Value (Times are PST for temperature in C)
2018,04,26,00,00,10.10
2018,04,26,00,01,10.10
2018,04,26,00,02,10.10
2018,04,26,00,03,10.10
2018,04,26,00,04,10.10
2018,04,26,00,05,10.10
2018,04,26,00,06,10.00
2018,04,26,00,07,10.00
2018,04,26,00,08,10.00
2018,04,26,00,09,9.90
2018,04,26,00,10,9.90
2018,04,26,00,11,9.80
2018,04,26,00,12,9.80
2018,04,26,00,13,9.80
2018,04,26,00,14,9.80
2018,04,26,00,15,9.70
2018,04,26,00,16,9.70
2018,04,26,00,17,9.70
2018,04,26,00,18,9.60
2018,04,26,00,19,9.60
2018,04,26,00,20,9.60
2018,04,26,00,21,9.60
2018,04,26,00,22,9.50
2018,04,26,00,23,9.50
2018,04,26,00,24,9.50
2018,04,26,00,25,9.50
2018,04,26,00,26,9.50
2018,04,26,00,27,9.50
2018,04,26,00,28,9.50
2018,04,26,00,29,9.40
2018,04,26,00,30,9.40
2018,04,26,00,31,9.40
2018,04,26,00,32,9.30
2018,04,26,00,33,9.30
2018,04,26,00,34,9.30
2018,04,26,00,35,9.30
2018,04,26,00,36,9.20
2018,04,26,00,37,9.20
2018,04,26,00,38,9.20
2018,04,26,00,39,9.20
2018,04,26,00,40,9.30
2018,04,26,00,41,9.30
2018,04,26,00,42,9.30
2018,04,26,00,43,9.30
2018,04,26,00,44,9.30
2018,04,26,00,45,9.30
2018,04,26,00,46,9.30
2018,04,26,00,47,9.30
2018,04,26,00,48,9.30
2018,04,26,00,49,9.30
2018,04,26,00,50,9.30
2018,04,26,00,51,9.30
2018,04,26,00,52,9.30
2018,04,26,00,53,9.30
2018,04,26,00,54,9.20
2018,04,26,00,55,9.20
2018,04,26,00,56,9.20
2018,04,26,00,57,9.20
2018,04,26,00,58,9.30
2018,04,26,00,59,9.30
2018,04,26,01,00,9.30
2018,04,26,01,01,9.20
2018,04,26,01,02,9.20
2018,04,26,01,03,9.30
2018,04,26,01,04,9.30
2018,04,26,01,05,9.30
2018,04,26,01,06,9.30
2018,04,26,01,07,9.30
2018,04,26,01,08,9.30
2018,04,26,01,09,9.40
2018,04,26,01,10,9.30
2018,04,26,01,11,9.30
2018,04,26,01,12,9.30
2018,04,26,01,13,9.30
2018,04,26,01,14,9.30
2018,04,26,01,15,9.20
2018,04,26,01,16,9.20
2018,04,26,01,17,9.20
2018,04,26,01,18,9.20
2018,04,26,01,19,9.20
2018,04,26,01,20,9.20
2018,04,26,01,21,9.20
2018,04,26,01,22,9.20
2018,04,26,01,23,9.20
2018,04,26,01,24,9.20
2018,04,26,01,25,9.20
2018,04,26,01,26,9.10
2018,04,26,01,27,9.10
2018,04,26,01,28,9.10
2018,04,26,01,29,9.10
2018,04,26,01,30,9.10
2018,04,26,01,31,9.00
2018,04,26,01,32,9.00
2018,04,26,01,33,9.00
2018,04,26,01,34,8.90
2018,04,26,01,35,8.90
2018,04,26,01,36,8.80
2018,04,26,01,37,8.80
2018,04,26,01,38,8.80
2018,04,26,01,39,8.80
2018,04,26,01,40,8.70
2018,04,26,01,41,8.70
2018,04,26,01,42,8.70
2018,04,26,01,43,8.70
2018,04,26,01,44,8.70
2018,04,26,01,45,8.70
2018,04,26,01,46,8.70
2018,04,26,01,47,8.70
2018,04,26,01,48,8.60
2018,04,26,01,49,8.60
2018,04,26,01,50,8.60
2018,04,26,01,51,8.60
2018,04,26,01,52,8.50
2018,04,26,01,53,8.50
2018,04,26,01,54,8.50
2018,04,26,01,55,8.40
2018,04,26,01,56,8.40
2018,04,26,01,57,8.40
2018,04,26,01,58,8.40
2018,04,26,01,59,8.40
2018,04,26,02,00,8.40
2018,04,26,02,01,8.30
2018,04,26,02,02,8.30
2018,04,26,02,03,8.30
2018,04,26,02,04,8.30
2018,04,26,02,05,8.30
2018,04,26,02,06,8.30
2018,04,26,02,07,8.30
2018,04,26,02,08,8.30
2018,04,26,02,09,8.30
2018,04,26,02,10,8.30
2018,04,26,02,11,8.30
2018,04,26,02,12,8.30
2018,04,26,02,13,8.20
2018,04,26,02,14,8.20
2018,04,26,02,15,8.20
2018,04,26,02,16,8.20
2018,04,26,02,17,8.20
2018,04,26,02,18,8.20
2018,04,26,02,19,8.20
2018,04,26,02,20,8.10
2018,04,26,02,21,8.10
2018,04,26,02,22,8.10
2018,04,26,02,23,8.10
2018,04,26,02,24,8.10
2018,04,26,02,25,8.10
2018,04,26,02,26,8.10
2018,04,26,02,27,8.10
2018,04,26,02,28,8.10
2018,04,26,02,29,8.20
2018,04,26,02,30,8.20
2018,04,26,02,31,8.20
2018,04,26,02,32,8.20
2018,04,26,02,33,8.20
2018,04,26,02,34,8.30
2018,04,26,02,35,8.30
2018,04,26,02,36,8.30
2018,04,26,02,37,8.30
2018,04,26,02,38,8.30
2018,04,26,02,39,8.20
2018,04,26,02,40,8.20
2018,04,26,02,41,8.20
2018,04,26,02,42,8.10
2018,04,26,02,43,8.10
2018,04,26,02,44,8.10
2018,04,26,02,45,8.00
2018,04,26,02,46,8.00
2018,04,26,02,47,8.00
2018,04,26,02,48,7.90
2018,04,26,02,49,7.90
2018,04,26,02,50,7.90
2018,04,26,02,51,7.90
2018,04,26,02,52,7.90
2018,04,26,02,53,7.90
2018,04,26,02,54,7.90
2018,04,26,02,55,7.90
2018,04,26,02,56,7.90
2018,04,26,02,57,7.90
2018,04,26,02,58,7.90
2018,04,26,02,59,7.90
2018,04,26,03,00,7.90
2018,04,26,03,01,7.90
2018,04,26,03,02,7.90
2018,04,26,03,03,7.90
2018,04,26,03,04,7.80
2018,04,26,03,05,7.80
2018,04,26,03,06,7.80
2018,04,26,03,07,7.80
2018,04,26,03,08,7.80
2018,04,26,03,09,7.70
2018,04,26,03,10,7.70
2018,04,26,03,11,7.70
2018,04,26,03,12,7.70
2018,04,26,03,13,7.80
2018,04,26,03,14,7.80
2018,04,26,03,15,7.80
2018,04,26,03,16,7.80
2018,04,26,03,17,7.80
2018,04,26,03,18,7.80
2018,04,26,03,19,7.80
2018,04,26,03,20,7.70
2018,04,26,03,21,7.70
2018,04,26,03,22,7.70
2018,04,26,03,23,7.60
2018,04,26,03,24,7.60
2018,04,26,03,25,7.60
2018,04,26,03,26,7.60
2018,04,26,03,27,7.50
2018,04,26,03,28,7.50
2018,04,26,03,29,7.50
2018,04,26,03,30,7.50
2018,04,26,03,31,7.50
2018,04,26,03,32,7.40
2018,04,26,03,33,7.40
2018,04,26,03,34,7.50
2018,04,26,03,35,7.50
2018,04,26,03,36,7.50
2018,04,26,03,37,7.60
2018,04,26,03,38,7.60
2018,04,26,03,39,7.60
2018,04,26,03,40,7.60
2018,04,26,03,41,7.50
2018,04,26,03,42,7.50
2018,04,26,03,43,7.50
2018,04,26,03,44,7.50
2018,04,26,03,45,7.50
2018,04,26,03,46,7.50
2018,04,26,03,47,7.60
2018,04,26,03,48,7.60
2018,04,26,03,49,7.60
2018,04,26,03,50,7.60
2018,04,26,03,51,7.60
2018,04,26,03,52,7.60
2018,04,26,03,53,7.60
2018,04,26,03,54,7.50
2018,04,26,03,55,7.50
2018,04,26,03,56,7.50
2018,04,26,03,57,7.40
2018,04,26,03,58,7.40
2018,04,26,03,59,7.40
2018,04,26,04,00,7.40
2018,04,26,04,01,7.40
2018,04,26,04,02,7.40
2018,04,26,04,03,7.40
2018,04,26,04,04,7.40
2018,04,26,04,05,7.40
2018,04,26,04,06,7.40
2018,04,26,04,07,7.40
2018,04,26,04,08,7.40
2018,04,26,04,09,7.40
2018,04,26,04,10,7.40
2018,04,26,04,11,7.40
2018,04,26,04,12,7.30
2018,04,26,04,13,7.30
2018,04,26,04,14,7.30
2018,04,26,04,15,7.30
2018,04,26,04,16,7.30
2018,04,26,04,17,7.30
2018,04,26,04,18,7.30
2018,04,26,04,19,7.40
2018,04,26,04,20,7.40
2018,04,26,04,21,7.40
2018,04,26,04,22,7.40
2018,04,26,04,23,7.40
2018,04,26,04,24,7.40
2018,04,26,04,25,7.40
2018,04,26,04,26,7.40
2018,04,26,04,27,7.30
2018,04,26,04,28,7.30
2018,04,26,04,29,7.20
2018,04,26,04,30,7.10
2018,04,26,04,31,7.10
2018,04,26,04,32,7.00
2018,04,26,04,33,6.90
2018,04,26,04,34,6.90
2018,04,26,04,35,6.90
2018,04,26,04,36,6.90
2018,04,26,04,37,6.90
2018,04,26,04,38,6.90
2018,04,26,04,39,6.90
2018,04,26,04,40,7.00
2018,04,26,04,41,7.00
2018,04,26,04,42,7.00
2018,04,26,04,43,7.00
2018,04,26,04,44,7.00
2018,04,26,04,45,6.90
2018,04,26,04,46,6.90
2018,04,26,04,47,6.90
2018,04,26,04,48,6.90
2018,04,26,04,49,6.90
2018,04,26,04,50,6.90
2018,04,26,04,51,6.90
2018,04,26,04,52,6.80
2018,04,26,04,53,6.90
2018,04,26,04,54,6.90
2018,04,26,04,55,7.00
2018,04,26,04,56,7.00
2018,04,26,04,57,7.00
2018,04,26,04,58,7.10
2018,04,26,04,59,7.10
2018,04,26,05,00,7.10
2018,04,26,05,01,7.10
2018,04,26,05,02,7.10
2018,04,26,05,03,7.10
2018,04,26,05,04,7.10
2018,04,26,05,05,7.10
2018,04,26,05,06,7.10
2018,04,26,05,07,7.10
2018,04,26,05,08,7.10
2018,04,26,05,09,7.00
2018,04,26,05,10,7.00
2018,04,26,05,11,7.00
2018,04,26,05,12,7.00
2018,04,26,05,13,7.00
2018,04,26,05,14,7.00
2018,04,26,05,15,7.10
2018,04,26,05,16,7.10
2018,04,26,05,17,7.10
2018,04,26,05,18,7.10
2018,04,26,05,19,7.20
2018,04,26,05,20,7.20
2018,04,26,05,21,7.20
2018,04,26,05,22,7.20
2018,04,26,05,23,7.10
2018,04,26,05,24,7.10
2018,04,26,05,25,7.10
2018,04,26,05,26,7.10
2018,04,26,05,27,7.10
2018,04,26,05,28,7.10
2018,04,26,05,29,7.10
2018,04,26,05,30,7.00
2018,04,26,05,31,7.00
2018,04,26,05,32,7.00
2018,04,26,05,33,7.00
2018,04,26,05,34,7.00
2018,04,26,05,35,7.00
2018,04,26,05,36,6.90
2018,04,26,05,37,6.90
2018,04,26,05,38,6.90
2018,04,26,05,39,6.90
2018,04,26,05,40,6.80
2018,04,26,05,41,6.80
2018,04,26,05,42,6.80
2018,04,26,05,43,6.80
2018,04,26,05,44,6.80
2018,04,26,05,45,6.80
2018,04,26,05,46,6.80
2018,04,26,05,47,6.80
2018,04,26,05,48,6.70
2018,04,26,05,49,6.70
2018,04,26,05,50,6.70
2018,04,26,05,51,6.80
2018,04,26,05,52,6.80
2018,04,26,05,53,6.80
2018,04,26,05,54,6.80
2018,04,26,05,55,6.80
2018,04,26,05,56,6.80
2018,04,26,05,57,6.80
2018,04,26,05,58,6.80
2018,04,26,05,59,6.80
2018,04,26,06,00,6.80
2018,04,26,06,01,6.80
2018,04,26,06,02,6.70
2018,04,26,06,03,6.70
2018,04,26,06,04,6.70
2018,04,26,06,05,6.80
2018,04,26,06,06,6.70
2018,04,26,06,07,6.70
2018,04,26,06,08,6.70
2018,04,26,06,09,6.60
2018,04,26,06,10,6.60
2018,04,26,06,11,6.60
2018,04,26,06,12,6.70
2018,04,26,06,13,6.60
2018,04,26,06,14,6.60
2018,04,26,06,15,6.60
2018,04,26,06,16,6.60
2018,04,26,06,17,6.50
2018,04,26,06,18,6.50
2018,04,26,06,19,6.40
2018,04,26,06,20,6.40
2018,04,26,06,21,6.40
2018,04,26,06,22,6.40
2018,04,26,06,23,6.40
2018,04,26,06,24,6.40
2018,04,26,06,25,6.40
2018,04,26,06,26,6.50
2018,04,26,06,27,6.50
2018,04,26,06,28,6.50
2018,04,26,06,29,6.60
2018,04,26,06,30,6.60
2018,04,26,06,31,6.60
2018,04,26,06,32,6.60
2018,04,26,06,33,6.70
2018,04,26,06,34,6.70
2018,04,26,06,35,6.70
2018,04,26,06,36,6.70
2018,04,26,06,37,6.80
2018,04,26,06,38,6.80
2018,04,26,06,39,6.90
2018,04,26,06,40,6.90
2018,04,26,06,41,6.90
2018,04,26,06,42,6.90
2018,04,26,06,43,7.00
2018,04,26,06,44,7.00
2018,04,26,06,45,7.00
2018,04,26,06,46,7.00
2018,04,26,06,47,7.00
2018,04,26,06,48,6.90
2018,04,26,06,49,6.90
2018,04,26,06,50,6.90
2018,04,26,06,51,6.90
2018,04,26,06,52,6.90
2018,04,26,06,53,6.80
2018,04,26,06,54,6.80
2018,04,26,06,55,6.80
2018,04,26,06,56,6.80
2018,04,26,06,57,6.90
2018,04,26,06,58,6.90
2018,04,26,06,59,6.90
2018,04,26,07,00,7.00
2018,04,26,07,01,7.00
2018,04,26,07,02,7.00
2018,04,26,07,03,7.10
2018,04,26,07,04,7.10
2018,04,26,07,05,7.10
2018,04,26,07,06,7.10
2018,04,26,07,07,7.10
2018,04,26,07,08,7.10
2018,04,26,07,09,7.20
2018,04,26,07,10,7.20
2018,04,26,07,11,7.20
2018,04,26,07,12,7.30
2018,04,26,07,13,7.30
2018,04,26,07,14,7.40
2018,04,26,07,15,7.40
2018,04,26,07,16,7.40
2018,04,26,07,17,7.40
2018,04,26,07,18,7.40
2018,04,26,07,19,7.30
2018,04,26,07,20,7.30
2018,04,26,07,21,7.30
2018,04,26,07,22,7.30
2018,04,26,07,23,7.30
2018,04,26,07,24,7.30
2018,04,26,07,25,7.30
2018,04,26,07,26,7.30
2018,04,26,07,27,7.30
2018,04,26,07,28,7.30
2018,04,26,07,29,7.40
2018,04,26,07,30,7.40
2018,04,26,07,31,7.50
2018,04,26,07,32,7.50
2018,04,26,07,33,7.60
2018,04,26,07,34,7.70
2018,04,26,07,35,7.70
2018,04,26,07,36,7.70
2018,04,26,07,37,7.80
2018,04,26,07,38,7.90
2018,04,26,07,39,7.90
2018,04,26,07,40,8.00
2018,04,26,07,41,8.00
2018,04,26,07,42,8.00
2018,04,26,07,43,8.10
2018,04,26,07,44,8.10
2018,04,26,07,45,8.10
2018,04,26,07,46,8.20
2018,04,26,07,47,8.20
2018,04,26,07,48,8.30
2018,04,26,07,49,8.40
2018,04,26,07,50,8.40
2018,04,26,07,51,8.50
2018,04,26,07,52,8.60
2018,04,26,07,53,8.70
2018,04,26,07,54,8.70
2018,04,26,07,55,8.80
2018,04,26,07,56,8.80
2018,04,26,07,57,8.90
2018,04,26,07,58,9.00
2018,04,26,07,59,9.10
2018,04,26,08,00,9.20
2018,04,26,08,01,9.30
2018,04,26,08,02,9.30
2018,04,26,08,03,9.40
2018,04,26,08,04,9.50
2018,04,26,08,05,9.70
2018,04,26,08,06,9.80
2018,04,26,08,07,9.90
2018,04,26,08,08,10.10
2018,04,26,08,09,10.20
2018,04,26,08,10,10.40
2018,04,26,08,11,10.40
2018,04,26,08,12,10.50
2018,04,26,08,13,10.50
2018,04,26,08,14,10.50
2018,04,26,08,15,10.60
2018,04,26,08,16,10.60
2018,04,26,08,17,10.60
2018,04,26,08,18,10.70
2018,04,26,08,19,10.70
2018,04,26,08,20,10.80
2018,04,26,08,21,11.00
2018,04,26,08,22,11.00
2018,04,26,08,23,11.10
2018,04,26,08,24,11.20
2018,04,26,08,25,11.30
2018,04,26,08,26,11.40
2018,04,26,08,27,11.40
2018,04,26,08,28,11.50
2018,04,26,08,29,11.60
2018,04,26,08,30,11.70
2018,04,26,08,31,11.70
2018,04,26,08,32,11.80
2018,04,26,08,33,11.90
2018,04,26,08,34,12.00
2018,04,26,08,35,12.10
2018,04,26,08,36,12.10
2018,04,26,08,37,12.20
2018,04,26,08,38,12.20
2018,04,26,08,39,12.30
2018,04,26,08,40,12.30
2018,04,26,08,41,12.30
2018,04,26,08,42,12.40
2018,04,26,08,43,12.50
2018,04,26,08,44,12.50
2018,04,26,08,45,12.60
2018,04,26,08,46,12.70
2018,04,26,08,47,12.80
2018,04,26,08,48,12.90
2018,04,26,08,49,13.00
2018,04,26,08,50,13.10
2018,04,26,08,51,13.20
2018,04,26,08,52,13.30
2018,04,26,08,53,13.30
2018,04,26,08,54,13.40
2018,04,26,08,55,13.50
2018,04,26,08,56,13.50
2018,04,26,08,57,13.60
2018,04,26,08,58,13.80
2018,04,26,08,59,13.90
2018,04,26,09,00,14.00
2018,04,26,09,01,14.10
2018,04,26,09,02,14.10
2018,04,26,09,03,14.20
2018,04,26,09,04,14.30
2018,04,26,09,05,14.30
2018,04,26,09,06,14.40
2018,04,26,09,07,14.50
2018,04,26,09,08,14.60
2018,04,26,09,09,14.70
2018,04,26,09,10,14.80
2018,04,26,09,11,14.90
2018,04,26,09,12,15.00
2018,04,26,09,13,15.10
2018,04,26,09,14,15.10
2018,04,26,09,15,15.20
2018,04,26,09,16,15.30
2018,04,26,09,17,15.40
2018,04,26,09,18,15.50
2018,04,26,09,19,15.50
2018,04,26,09,20,15.60
2018,04,26,09,21,15.60
2018,04,26,09,22,15.70
2018,04,26,09,23,15.70
2018,04,26,09,24,15.80
2018,04,26,09,25,15.80
2018,04,26,09,26,15.90
2018,04,26,09,27,15.90
2018,04,26,09,28,16.00
2018,04,26,09,29,16.00
2018,04,26,09,30,16.10
2018,04,26,09,31,16.10
2018,04,26,09,32,16.10
2018,04,26,09,33,16.20
2018,04,26,09,34,16.30
2018,04,26,09,35,16.30
2018,04,26,09,36,16.40
2018,04,26,09,37,16.50
2018,04,26,09,38,16.60
2018,04,26,09,39,16.70
2018,04,26,09,40,16.80
2018,04,26,09,41,16.90
2018,04,26,09,42,16.90
2018,04,26,09,43,17.00
2018,04,26,09,44,17.10
2018,04,26,09,45,17.20
2018,04,26,09,46,17.30
2018,04,26,09,47,17.30
2018,04,26,09,48,17.40
2018,04,26,09,49,17.50
2018,04,26,09,50,17.50
2018,04,26,09,51,17.60
2018,04,26,09,52,17.70
2018,04,26,09,53,17.80
2018,04,26,09,54,17.90
2018,04,26,09,55,18.00
2018,04,26,09,56,18.10
2018,04,26,09,57,18.10
2018,04,26,09,58,18.20
2018,04,26,09,59,18.20
2018,04,26,10,00,18.30
2018,04,26,10,01,18.30
2018,04,26,10,02,18.40
2018,04,26,10,03,18.40
2018,04,26,10,04,18.50
2018,04,26,10,05,18.60
2018,04,26,10,06,18.70
2018,04,26,10,07,18.80
2018,04,26,10,08,18.90
2018,04,26,10,09,18.90
2018,04,26,10,10,18.90
2018,04,26,10,11,18.90
2018,04,26,10,12,19.00
2018,04,26,10,13,19.10
2018,04,26,10,14,19.10
2018,04,26,10,15,19.20
2018,04,26,10,16,19.20
2018,04,26,10,17,19.20
2018,04,26,10,18,19.20
2018,04,26,10,19,19.30
2018,04,26,10,20,19.30
2018,04,26,10,21,19.40
2018,04,26,10,22,19.40
2018,04,26,10,23,19.50
2018,04,26,10,24,19.50
2018,04,26,10,25,19.60
2018,04,26,10,26,19.70
2018,04,26,10,27,19.80
2018,04,26,10,28,19.80
2018,04,26,10,29,19.80
2018,04,26,10,30,19.90
2018,04,26,10,31,19.90
2018,04,26,10,32,19.90
2018,04,26,10,33,19.90
2018,04,26,10,34,20.00
2018,04,26,10,35,20.00
2018,04,26,10,36,20.10
2018,04,26,10,37,20.20
2018,04,26,10,38,20.30
2018,04,26,10,39,20.40
2018,04,26,10,40,20.40
2018,04,26,10,41,20.50
2018,04,26,10,42,20.60
2018,04,26,10,43,20.60
2018,04,26,10,44,20.60
2018,04,26,10,45,20.70
2018,04,26,10,46,20.80
2018,04,26,10,47,20.80
2018,04,26,10,48,20.90
2018,04,26,10,49,20.80
2018,04,26,10,50,20.80
2018,04,26,10,51,20.80
2018,04,26,10,52,20.80
2018,04,26,10,53,20.80
2018,04,26,10,54,20.90
2018,04,26,10,55,21.00
2018,04,26,10,56,21.00
2018,04,26,10,57,21.10
2018,04,26,10,58,21.20
2018,04,26,10,59,21.20
2018,04,26,11,00,21.30
2018,04,26,11,01,21.30
2018,04,26,11,02,21.30
2018,04,26,11,03,21.40
2018,04,26,11,04,21.40
2018,04,26,11,05,21.50
2018,04,26,11,06,21.60
2018,04,26,11,07,21.60
2018,04,26,11,08,21.70
2018,04,26,11,09,21.70
2018,04,26,11,10,21.80
2018,04,26,11,11,21.80
2018,04,26,11,12,21.80
2018,04,26,11,13,21.80
2018,04,26,11,14,21.70
2018,04,26,11,15,21.70
2018,04,26,11,16,21.60
2018,04,26,11,17,21.60
2018,04,26,11,18,21.70
2018,04,26,11,19,21.70
2018,04,26,11,20,21.70
2018,04,26,11,21,21.80
2018,04,26,11,22,21.80
2018,04,26,11,23,21.90
2018,04,26,11,24,21.80
2018,04,26,11,25,21.80
2018,04,26,11,26,21.80
2018,04,26,11,27,21.80
2018,04,26,11,28,21.80
2018,04,26,11,29,22.00
2018,04,26,11,30,22.20
2018,04,26,11,31,22.30
2018,04,26,11,32,22.30
2018,04,26,11,33,22.40
2018,04,26,11,34,22.40
2018,04,26,11,35,22.50
2018,04,26,11,36,22.50
2018,04,26,11,37,22.50
2018,04,26,11,38,22.40
2018,04,26,11,39,22.40
2018,04,26,11,40,22.30
2018,04,26,11,41,22.30
2018,04,26,11,42,22.20
2018,04,26,11,43,22.20
2018,04,26,11,44,22.10
2018,04,26,11,45,22.10
2018,04,26,11,46,22.00
2018,04,26,11,47,22.00
2018,04,26,11,48,21.90
2018,04,26,11,49,21.90
2018,04,26,11,50,21.80
2018,04,26,11,51,21.80
2018,04,26,11,52,21.70
2018,04,26,11,53,21.70
2018,04,26,11,54,21.70
2018,04,26,11,55,21.60
2018,04,26,11,56,21.50
2018,04,26,11,57,21.40
2018,04,26,11,58,21.40
2018,04,26,11,59,21.40
2018,04,26,12,00,21.40
2018,04,26,12,01,21.40
2018,04,26,12,02,21.50
2018,04,26,12,03,21.50
2018,04,26,12,04,21.50
2018,04,26,12,05,21.60
2018,04,26,12,06,21.50
2018,04,26,12,07,21.50
2018,04,26,12,08,21.50
2018,04,26,12,09,21.60
2018,04,26,12,10,21.60
2018,04,26,12,11,21.60
2018,04,26,12,12,21.60
2018,04,26,12,13,21.60
2018,04,26,12,14,21.60
2018,04,26,12,15,21.60
2018,04,26,12,16,21.80
2018,04,26,12,17,21.90
2018,04,26,12,18,21.90
2018,04,26,12,19,22.00
2018,04,26,12,20,22.00
2018,04,26,12,21,22.10
2018,04,26,12,22,22.20
2018,04,26,12,23,22.20
2018,04,26,12,24,22.30
2018,04,26,12,25,22.30
2018,04,26,12,26,22.30
2018,04,26,12,27,22.20
2018,04,26,12,28,22.20
2018,04,26,12,29,22.20
2018,04,26,12,30,22.20
2018,04,26,12,31,22.30
2018,04,26,12,32,22.30
2018,04,26,12,33,22.30
2018,04,26,12,34,22.30
2018,04,26,12,35,22.30
2018,04,26,12,36,22.30
2018,04,26,12,37,22.40
2018,04,26,12,38,22.40
2018,04,26,12,39,22.40
2018,04,26,12,40,22.30
2018,04,26,12,41,22.30
2018,04,26,12,42,22.30
2018,04,26,12,43,22.30
2018,04,26,12,44,22.30
2018,04,26,12,45,22.40
2018,04,26,12,46,22.40
2018,04,26,12,47,22.40
2018,04,26,12,48,22.40
2018,04,26,12,49,22.40
2018,04,26,12,50,22.40
2018,04,26,12,51,22.40
2018,04,26,12,52,22.50
2018,04,26,12,53,22.50
2018,04,26,12,54,22.60
2018,04,26,12,55,22.70
2018,04,26,12,56,22.80
2018,04,26,12,57,22.80
2018,04,26,12,58,22.80
2018,04,26,12,59,22.80
2018,04,26,13,00,22.90
2018,04,26,13,01,23.00
2018,04,26,13,02,23.10
2018,04,26,13,03,23.10
2018,04,26,13,04,23.20
2018,04,26,13,05,23.20
2018,04,26,13,06,23.20
2018,04,26,13,07,23.20
2018,04,26,13,08,23.20
2018,04,26,13,09,23.20
2018,04,26,13,10,23.20
2018,04,26,13,11,23.30
2018,04,26,13,12,23.30
2018,04,26,13,13,23.30
2018,04,26,13,14,23.30
2018,04,26,13,15,23.30
2018,04,26,13,16,23.30
2018,04,26,13,17,23.30
2018,04,26,13,18,23.30
2018,04,26,13,19,23.30
2018,04,26,13,20,23.30
2018,04,26,13,21,23.30
2018,04,26,13,22,23.30
2018,04,26,13,23,23.40
2018,04,26,13,24,23.40
2018,04,26,13,25,23.40
2018,04,26,13,26,23.30
2018,04,26,13,27,23.20
2018,04,26,13,28,23.20
2018,04,26,13,29,23.20
2018,04,26,13,30,23.20
2018,04,26,13,31,23.30
2018,04,26,13,32,23.30
2018,04,26,13,33,23.30
2018,04,26,13,34,23.30
2018,04,26,13,35,23.30
2018,04,26,13,36,23.30
2018,04,26,13,37,23.30
2018,04,26,13,38,23.20
2018,04,26,13,39,23.20
2018,04,26,13,40,23.20
2018,04,26,13,41,23.20
2018,04,26,13,42,23.20
2018,04,26,13,43,23.20
2018,04,26,13,44,23.20
2018,04,26,13,45,23.20
2018,04,26,13,46,23.20
2018,04,26,13,47,23.20
2018,04,26,13,48,23.20
2018,04,26,13,49,23.20
2018,04,26,13,50,23.20
2018,04,26,13,51,23.10
2018,04,26,13,52,23.10
2018,04,26,13,53,23.20
2018,04,26,13,54,23.20
2018,04,26,13,55,23.30
2018,04,26,13,56,23.20
2018,04,26,13,57,23.20
2018,04,26,13,58,23.20
2018,04,26,13,59,23.20
2018,04,26,14,00,23.20
2018,04,26,14,01,23.20
2018,04,26,14,02,23.20
2018,04,26,14,03,23.20
2018,04,26,14,04,23.10
2018,04,26,14,05,22.90
2018,04,26,14,06,22.90
2018,04,26,14,07,22.70
2018,04,26,14,08,22.50
2018,04,26,14,09,22.30
2018,04,26,14,10,22.20
2018,04,26,14,11,22.10
2018,04,26,14,12,22.00
2018,04,26,14,13,22.00
2018,04,26,14,14,21.90
2018,04,26,14,15,21.90
2018,04,26,14,16,21.80
2018,04,26,14,17,21.80
2018,04,26,14,18,21.70
2018,04,26,14,19,21.60
2018,04,26,14,20,21.60
2018,04,26,14,21,21.50
2018,04,26,14,22,21.40
2018,04,26,14,23,21.30
2018,04,26,14,24,21.20
2018,04,26,14,25,21.10
2018,04,26,14,26,21.00
2018,04,26,14,27,20.90
2018,04,26,14,28,20.80
2018,04,26,14,29,20.90
2018,04,26,14,30,20.80
2018,04,26,14,31,20.80
2018,04,26,14,32,20.70
2018,04,26,14,33,20.60
2018,04,26,14,34,20.50
2018,04,26,14,35,20.50
2018,04,26,14,36,20.40
2018,04,26,14,37,20.40
2018,04,26,14,38,20.40
2018,04,26,14,39,20.40
2018,04,26,14,40,20.50
2018,04,26,14,41,20.60
2018,04,26,14,42,20.60
2018,04,26,14,43,20.70
2018,04,26,14,44,20.80
2018,04,26,14,45,20.80
2018,04,26,14,46,20.90
2018,04,26,14,47,20.90
2018,04,26,14,48,20.90
2018,04,26,14,49,20.90
2018,04,26,14,50,20.80
2018,04,26,14,51,20.70
2018,04,26,14,52,20.60
2018,04,26,14,53,20.50
2018,04,26,14,54,20.40
2018,04,26,14,55,20.30
2018,04,26,14,56,20.30
2018,04,26,14,57,20.30
2018,04,26,14,58,20.40
2018,04,26,14,59,20.50
2018,04,26,15,00,20.50
2018,04,26,15,01,20.50
2018,04,26,15,02,20.50
2018,04,26,15,03,20.50
2018,04,26,15,04,20.60
2018,04,26,15,05,20.70
2018,04,26,15,06,20.60
2018,04,26,15,07,20.60
2018,04,26,15,08,20.60
2018,04,26,15,09,20.60
2018,04,26,15,10,20.50
2018,04,26,15,11,20.50
2018,04,26,15,12,20.40
2018,04,26,15,13,20.30
2018,04,26,15,14,20.20
2018,04,26,15,15,20.20
2018,04,26,15,16,20.20
2018,04,26,15,17,20.30
2018,04,26,15,18,20.30
2018,04,26,15,19,20.30
2018,04,26,15,20,20.40
2018,04,26,15,21,20.40
2018,04,26,15,22,20.40
2018,04,26,15,23,20.40
2018,04,26,15,24,20.40
2018,04,26,15,25,20.40
2018,04,26,15,26,20.40
2018,04,26,15,27,20.30
2018,04,26,15,28,20.30
2018,04,26,15,29,20.30
2018,04,26,15,30,20.30
2018,04,26,15,31,20.30
2018,04,26,15,32,20.30
2018,04,26,15,33,20.30
2018,04,26,15,34,20.30
2018,04,26,15,35,20.30
2018,04,26,15,36,20.20
2018,04,26,15,37,20.20
2018,04,26,15,38,20.20
2018,04,26,15,39,20.20
2018,04,26,15,40,20.10
2018,04,26,15,41,20.20
2018,04,26,15,42,20.20
2018,04,26,15,43,20.10
2018,04,26,15,44,20.00
2018,04,26,15,45,20.00
2018,04,26,15,46,19.90
2018,04,26,15,47,19.90
2018,04,26,15,48,19.80
2018,04,26,15,49,19.70
2018,04,26,15,50,19.60
2018,04,26,15,51,19.40
2018,04,26,15,52,19.20
2018,04,26,15,53,19.00
2018,04,26,15,54,18.70
2018,04,26,15,55,18.60
2018,04,26,15,56,18.50
2018,04,26,15,57,18.30
2018,04,26,15,58,18.10
2018,04,26,15,59,18.00
2018,04,26,16,00,17.90
2018,04,26,16,01,17.70
2018,04,26,16,02,17.60
2018,04,26,16,03,17.40
2018,04,26,16,04,17.30
2018,04,26,16,05,17.10
2018,04,26,16,06,17.00
2018,04,26,16,07,16.90
2018,04,26,16,08,16.70
2018,04,26,16,09,16.60
2018,04,26,16,10,16.40
2018,04,26,16,11,16.40
2018,04,26,16,12,16.20
2018,04,26,16,13,16.00
2018,04,26,16,14,15.80
2018,04,26,16,15,15.80
2018,04,26,16,16,15.70
2018,04,26,16,17,15.60
2018,04,26,16,18,15.50
2018,04,26,16,19,15.40
2018,04,26,16,20,15.30
2018,04,26,16,21,15.30
2018,04,26,16,22,15.30
2018,04,26,16,23,15.30
2018,04,26,16,24,15.30
2018,04,26,16,25,15.20
2018,04,26,16,26,15.10
2018,04,26,16,27,15.10
2018,04,26,16,28,15.00
2018,04,26,16,29,14.90
2018,04,26,16,30,14.90
2018,04,26,16,31,14.80
2018,04,26,16,32,14.80
2018,04,26,16,33,14.70
2018,04,26,16,34,14.60
2018,04,26,16,35,14.40
2018,04,26,16,36,14.30
2018,04,26,16,37,14.20
2018,04,26,16,38,14.20
2018,04,26,16,39,14.20
2018,04,26,16,40,14.20
2018,04,26,16,41,14.20
2018,04,26,16,42,14.20
2018,04,26,16,43,14.20
2018,04,26,16,44,14.10
2018,04,26,16,45,14.00
2018,04,26,16,46,13.90
2018,04,26,16,47,13.90
2018,04,26,16,48,13.80
2018,04,26,16,49,13.80
2018,04,26,16,50,13.90
2018,04,26,16,51,14.00
2018,04,26,16,52,14.00
2018,04,26,16,53,14.10
2018,04,26,16,54,14.10
2018,04,26,16,55,14.10
2018,04,26,16,56,14.10
2018,04,26,16,57,14.10
2018,04,26,16,58,14.10
2018,04,26,16,59,14.10
2018,04,26,17,00,14.00
2018,04,26,17,01,14.00
2018,04,26,17,02,14.00
2018,04,26,17,03,13.90
2018,04,26,17,04,13.90
2018,04,26,17,05,13.90
2018,04,26,17,06,13.90
2018,04,26,17,07,13.80
2018,04,26,17,08,13.80
2018,04,26,17,09,13.80
2018,04,26,17,10,13.80
2018,04,26,17,11,13.80
2018,04,26,17,12,13.70
2018,04,26,17,13,13.80
2018,04,26,17,14,13.90
2018,04,26,17,15,13.90
2018,04,26,17,16,13.90
2018,04,26,17,17,13.90
2018,04,26,17,18,13.90
2018,04,26,17,19,13.90
2018,04,26,17,20,13.90
2018,04,26,17,21,13.90
2018,04,26,17,22,14.00
2018,04,26,17,23,14.00
2018,04,26,17,24,13.90
2018,04,26,17,25,13.90
2018,04,26,17,26,14.00
2018,04,26,17,27,14.00
2018,04,26,17,28,14.00
2018,04,26,17,29,14.00
2018,04,26,17,30,14.10
2018,04,26,17,31,14.10
2018,04,26,17,32,14.10
2018,04,26,17,33,14.10
2018,04,26,17,34,14.10
2018,04,26,17,35,14.10
2018,04,26,17,36,14.10
2018,04,26,17,37,14.00
2018,04,26,17,38,14.00
2018,04,26,17,39,13.90
2018,04,26,17,40,13.90